Weather History for KCWA - December, 2012

Change the Weather History Date:

Sunday, December 9, 2012

  Actual Average Record
Temperature  
Mean Temperature 27 °F -  
Max Temperature 28 °F 30 °F 42 °F (1998)
Min Temperature 26 °F 16 °F -7 °F (2000)
Degree Days  
Heating Degree Days 38    
Moisture  
Dew Point 26 °F    
Average Humidity 94    
Maximum Humidity 100    
Minimum Humidity 80    
Precipitation  
Precipitation 0.00 in - - ()
Sea Level Pressure  
Sea Level Pressure 29.93 in    
Wind  
Wind Speed 9 mph (ENE)    
Max Wind Speed 16 mph    
Max Gust Speed 18 mph    
Visibility 6 miles    
Events Snow    
Averages and records for this station are not official NWS values.
T = Trace of Precipitation, MM = Missing Value Source: NWS Daily Summary

Daily Weather History Graph

Daily Weather History Graph

Search for Another Location

Airport or City:

Trip Planner

Search our weather history database for the weather conditions in past years. The results will help you decide how hot, cold, wet, or windy it might be!

Date:

Astronomy

Dec. 09, 2012 Rise Set
Actual Time 7:24 AM CST 4:17 PM CST
Civil Twilight 6:51 AM CST 4:51 PM CST
Nautical Twilight 6:14 AM CST 5:28 PM CST
Astronomical Twilight 5:38 AM CST 6:03 PM CST
Moon 2:49 AM CST (12/9) 1:31 PM CST (12/9)
Length of Visible Light 9h 59m
Length of Day
8h 53m
Waning Crescent, 18% of the Moon is Illuminated
Dec 9
Waning Crescent
Dec 13
New
Dec 19
First Quarter
Dec 28
Full
Jan 4
Last Quarter

Hourly Weather History & Observations

Time (CST) Temp. Windchill Dew Point Humidity Pressure Visibility Wind Dir Wind Speed Gust Speed Precip Events Conditions
12:15 AM 26.6 °F 18.2 °F 23.0 °F 86% 30.10 in 10.0 mi ESE 8.1 mph - N/A   Clear
12:35 AM 26.6 °F 19.1 °F 23.0 °F 86% 30.10 in 10.0 mi East 6.9 mph - N/A   Clear
12:55 AM 26.6 °F 20.0 °F 23.0 °F 86% 30.10 in 10.0 mi East 5.8 mph - N/A   Clear
1:15 AM 26.6 °F 21.2 °F 23.0 °F 86% 30.11 in 10.0 mi East 4.6 mph - N/A   Scattered Clouds
1:35 AM 26.6 °F - 21.2 °F 80% 30.13 in 10.0 mi Calm Calm - N/A   Scattered Clouds
1:55 AM 26.6 °F 20.0 °F 23.0 °F 86% 30.13 in 10.0 mi NE 5.8 mph - N/A   Mostly Cloudy
2:15 AM 26.6 °F 19.1 °F 23.0 °F 86% 30.12 in 10.0 mi ENE 6.9 mph - N/A   Mostly Cloudy
2:35 AM 26.6 °F 17.5 °F 23.0 °F 86% 30.11 in 10.0 mi ENE 9.2 mph - N/A   Mostly Cloudy
2:55 AM 26.6 °F 17.5 °F 23.0 °F 86% 30.09 in 10.0 mi ENE 9.2 mph - N/A   Scattered Clouds
3:15 AM 26.6 °F 16.8 °F 23.0 °F 86% 30.07 in 10.0 mi East 10.4 mph - N/A   Mostly Cloudy
3:35 AM 26.6 °F 18.2 °F 23.0 °F 86% 30.07 in 10.0 mi East 8.1 mph - N/A   Mostly Cloudy
3:55 AM 26.6 °F 16.2 °F 23.0 °F 86% 30.07 in 10.0 mi East 11.5 mph - N/A   Scattered Clouds
4:15 AM 26.6 °F 18.2 °F 23.0 °F 86% 30.06 in 10.0 mi East 8.1 mph - N/A   Mostly Cloudy
4:35 AM 26.6 °F 18.2 °F 23.0 °F 86% 30.06 in 10.0 mi East 8.1 mph - N/A   Mostly Cloudy
6:50 AM 26.6 °F 16.8 °F 26.6 °F 100% 30.07 in 10.0 mi ENE 10.4 mph - N/A   Overcast
7:52 AM 28.4 °F 17.5 °F 24.8 °F 86% 30.03 in 10.0 mi East 13.8 mph 18.4 mph N/A   Mostly Cloudy
8:45 AM 28.4 °F 18.5 °F 24.8 °F 86% 30.03 in 10.0 mi East 11.5 mph 17.3 mph N/A   Overcast
9:45 AM 28.4 °F 18.5 °F 26.6 °F 93% 30.02 in 1.5 mi East 11.5 mph 17.3 mph N/A Snow Light Snow
10:50 AM 28.4 °F 19.1 °F 26.6 °F 93% 30.00 in 1.5 mi ENE 10.4 mph - N/A Snow Light Snow
11:45 AM 28.4 °F 17.5 °F 26.6 °F 93% 29.96 in 1.5 mi ENE 13.8 mph - N/A Snow Light Snow
12:52 PM 28.4 °F 18.0 °F 28.4 °F 100% 29.90 in 1.5 mi East 12.7 mph - N/A Snow Light Snow
1:45 PM 28.4 °F 18.0 °F 28.4 °F 100% 29.87 in 1.5 mi ENE 12.7 mph - N/A Snow Light Snow
2:45 PM 28.4 °F 16.6 °F 28.4 °F 100% 29.84 in 2.0 mi ENE 16.1 mph - N/A Snow Light Snow
3:50 PM 28.4 °F 18.5 °F 28.4 °F 100% 29.82 in 2.0 mi ENE 11.5 mph - N/A Snow Light Snow
4:50 PM 28.4 °F 19.7 °F 28.4 °F 100% 29.81 in 2.0 mi NE 9.2 mph - N/A Snow Light Snow
5:50 PM 28.4 °F 20.4 °F 28.4 °F 100% 29.82 in 1.5 mi NE 8.1 mph - N/A Snow Light Snow
6:50 PM 28.4 °F 20.4 °F 28.4 °F 100% 29.81 in 1.0 mi NNE 8.1 mph - N/A Snow Light Snow
7:50 PM 28.4 °F 19.1 °F 28.4 °F 100% 29.76 in 1.5 mi NE 10.4 mph - N/A Snow Light Snow
8:50 PM 28.4 °F 19.7 °F 28.4 °F 100% 29.75 in 2.0 mi NNE 9.2 mph - N/A Snow Light Snow
9:15 PM 28.4 °F 19.1 °F 28.4 °F 100% 29.75 in 2.5 mi NNE 10.4 mph - N/A Snow Light Snow
9:35 PM 28.4 °F 19.7 °F 28.4 °F 100% 29.74 in 2.5 mi NNE 9.2 mph - N/A Snow Light Snow
9:45 PM 28.4 °F 19.7 °F 28.4 °F 100% 29.74 in 2.0 mi NNE 9.2 mph - N/A Snow Light Snow
9:55 PM 28.4 °F 19.7 °F 28.4 °F 100% 29.74 in 2.5 mi NNE 9.2 mph - N/A Snow Light Snow
10:15 PM 28.4 °F 19.7 °F 28.4 °F 100% 29.74 in 2.5 mi NNE 9.2 mph - N/A Snow Light Snow
10:35 PM 28.4 °F 19.7 °F 28.4 °F 100% 29.74 in 2.5 mi NNE 9.2 mph - N/A Snow Light Snow
10:55 PM 28.4 °F 19.1 °F 28.4 °F 100% 29.73 in 2.5 mi NNE 10.4 mph - N/A Snow Light Snow
11:15 PM 28.4 °F 19.1 °F 28.4 °F 100% 29.73 in 3.0 mi NNE 10.4 mph - N/A Snow Light Snow
11:35 PM 28.4 °F 19.7 °F 28.4 °F 100% 29.73 in 4.0 mi NNE 9.2 mph - N/A Snow Light Snow
11:55 PM 28.4 °F 19.7 °F 28.4 °F 100% 29.73 in 7.0 mi NNE 9.2 mph - N/A Snow Light Snow